Other Public Products
Issued by NWS Charleston, SC

Home | Current Version | Previous Version | Text Only | Print | Product List | Glossary On
Versions: 1 2 3 4 5 6 7 8 9 10 11 12 13 14 15 16 17 18 19 20 21 22 23 24 25 26 27 28 29 30 31 32 33 34 35 36 37 38 39 40 41 42 43 44 45 46 47 48 49 50
000
FPUS82 KCHS 190227
OPUCHS

TEST...KCHS/KSAV Gateway Observations...TEST
National Weather Service Charleston SC
900 PM EST SUN FEB 18 2018

NOTE: "fair" indicates few or no clouds below 12,000 feet with no
significant weather and/or obstructions to visibility.

SCZ050-WAZ558-NCZ071-TXZ119-213-PAZ071-DCZ001-FLZ074-172-MI076-
NYZ176-178-MAZ016-IL014-TNZ027-NJZ106-GAZ044-MD014-190300-

...Gateway Observations for Charleston International...

CITY           SKY/WX    TMP DP  RH WIND       PRES   REMARKS
Chas Airport   CLOUDY    60  52  74 VRB5      30.35R
Seattle        PTCLDY    32  17  54 N28G40    29.83R WCI  18
Charlotte      MOCLDY    59  37  44 E7        30.35R
Dallas DFW     CLOUDY    63  61  93 S12       29.89S FOG
Dallas Love    CLOUDY    62  61  96 S12       29.90S FOG
Philladelphia  FAIR      39  25  57 E3        30.49S
Wash National  MOCLDY    43  32  65 SE6       30.47R
Baltimore      FAIR      35  31  85 SE5       30.45R WCI  31
Miami          FAIR      73  65  75 E13       30.23R
Detroit        CLOUDY    32  27  81 SE7       30.18F WCI  26
Newark         FAIR      39  24  55 NE3       30.50R
Laguardia      FAIR      40  24  53 CALM      30.49R
J F K          FAIR      38  25  59 N9        30.51R WCI  31
Boston Logan   MOCLDY    38  21  50 NW7       30.49R WCI  33
Ft. Lauderdale FAIR      74  67  78 E14       30.23R
Chicago O`Hare CLOUDY    38  30  73 SE16      29.93F WCI  29
Chicago Midway CLOUDY    40  31  70 S15G26    29.95F WCI  32
Houston Bush   MOCLDY    71  66  84 S13       30.03R
Houston Hobby  MOCLDY    69  69 100 SE10      30.03R
Nashville      CLOUDY    59  40  49 S10       30.13F
Atlanta        CLOUDY    60  58  92 E7        30.27R

$$

GAZ044-118-TXZ119-213-NCZ071-DCZ001-MDZ014-506-PAZ021-071-NJZ106-
NYZ176-178-MAZ106-OHZ011-021-055-MIZ076-KYZ091-ILZ014-INZ047-
MNZ060-ONZ431-190300-

...Gateway Observations for Savannah International...

CITY           SKY/WX    TMP DP  RH WIND       PRES   REMARKS
Savannah Arpt  CLOUDY    62  57  83 E7        30.33R
Atlanta        CLOUDY    60  58  92 E7        30.27R
Charlotte      MOCLDY    59  37  44 E7        30.35R
Dallas DFW     CLOUDY    63  61  93 S12       29.89S FOG
Houston Bush   MOCLDY    71  66  84 S13       30.03R
Wash National  MOCLDY    43  32  65 SE6       30.47R
Wash Dulles    MOCLDY    40  29  64 E6        30.44R WCI  36
Baltimore      FAIR      35  31  85 SE5       30.45R WCI  31
Philadelphia   FAIR      39  25  57 E3        30.49S
Newark         FAIR      39  24  55 NE3       30.50R
Laguardia      FAIR      40  24  53 CALM      30.49R
J F K          FAIR      38  25  59 N9        30.51R WCI  31
Boston         MOCLDY    38  21  50 NW7       30.49R WCI  33
Pittsburg      MOCLDY    33  27  78 E6        30.27F WCI  28
Akron          MOCLDY    34  25  69 SE13      30.24F WCI  25
Cleveland      MOCLDY    37  27  67 S10       30.26S WCI  30
Cincinnati     MOCLDY    40  34  79 E8        30.15F WCI  34
Columbus       FAIR      35  30  81 E5        30.21F WCI  31
Detroit        CLOUDY    32  27  81 SE7       30.18F WCI  26
Chicago O`Hare CLOUDY    38  30  73 SE16      29.93F WCI  29
Minneapolis    MOCLDY    37  31  78 S5        29.67R WCI  33
Indianapolis   CLOUDY    41  33  73 SE8       30.10F
Toronto Canada MOCLDY    32  23  69 SE5       30.28F WCI  27

$$




USA.gov is the U.S. government's official web portal to all federal, state and local government web resources and services.